{"data":{"norad_id":64089,"epoch":"2026-05-25T03:59:35.068704Z","epoch_age_seconds":63755,"freshness":"FRESH","line1":"1 64089U 25108C   26145.16637811  .00004661  00000+0  26728-3 0  9998","line2":"2 64089  97.4689 219.7630 0010949 114.3248 245.9128 15.13008750 55782","mean_motion":15.1300875,"eccentricity":0.0010949,"inclination_deg":97.4689,"raan_deg":219.763,"arg_perigee_deg":114.3248,"mean_anomaly_deg":245.9128,"bstar":0.00026728,"rev_number":5578,"period_min":95.174598296276,"perigee_km":519.46998592147,"apogee_km":534.59092161173,"semimajor_km":6905.1674537666,"source":"CELESTRAK","updated_at":"2026-05-25T13:38:04.235360Z"}}